Regional Weather Roundup
Issued by NWS Cleveland, OH

Home | Current Version | Previous Version | Graphics & Text | Print | Product List | Glossary On
Versions: 1 2 3 4 5 6 7 8 9 10 11 12 13 14 15 16 17 18 19 20 21 22 23 24 25 26 27 28 29 30 31 32 33 34 35 36 37 38 39 40 41 42 43 44 45 46 47 48 49 50
000
ASUS41 KCLE 291512
RWRCLE
OHIO REGIONAL WEATHER ROUNDUP
NATIONAL WEATHER SERVICE WILMINGTON, OH
1100 AM EDT SUN MAY 29 2016

NOTE: "FAIR" INDICATES FEW OR NO CLOUDS BELOW 12,000 FEET WITH NO
SIGNIFICANT WEATHER AND/OR OBSTRUCTIONS TO VISIBILITY.

OHZ001>008-015>018-024>027-034-035-043-044-291600-
   NORTHWEST OHIO

CITY           SKY/WX    TMP DP  RH WIND       PRES   REMARKS
DEFIANCE       PTSUNNY   80  67  64 S14       30.06F
FINDLAY        FAIR      79  66  64 SW12      30.07F
TOLEDO EXPRESS FAIR      76  66  71 SW10      30.06S
TOLEDO EXEC    FAIR      78  66  66 SW14      30.06F
LIMA           FAIR      77  68  73 SW12      30.08F
$$

OHZ009>014-019>023-028>033-038-089-291600-
   NORTHEAST OHIO

CITY           SKY/WX    TMP DP  RH WIND       PRES   REMARKS
CLE-HOPKINS    CLOUDY    79  65  62 S8        30.10F
CLE-LAKEFRONT  FAIR      80  66  62 SW10      30.07F
CUY CO. ARPT   NOT AVBL
LORAIN-ELYRIA  FAIR      76  67  73 S6        30.09F
ASHTABULA      FAIR      79  68  69 S8        30.11F
AKRON-CANTON   CLOUDY    77  64  64 SW6       30.12F
WOOSTER        FAIR      77  65  66 S7        30.11F
MANSFIELD      PTSUNNY   74  66  76 S6        30.12F
YOUNGSTOWN     CLOUDY    78  66  66 SW6       30.12F
$$

OHZ042-051>053-060>062-070>072-077>081-291600-
  SOUTHWEST OHIO

CITY           SKY/WX    TMP DP  RH WIND       PRES   REMARKS
CINC-COVINGTON PTSUNNY   77  67  71 SW5       30.12S
CINC-LUNKEN    FAIR      75  68  78 S5        30.12S
HAMILTON       FAIR      76  67  73 VRB3      30.12S
DAYTON         PTSUNNY   76  67  73 S7        30.12S
WRIGHT-PAT AFB FAIR      76  69  78 SW7       30.10F
DAYTON GENERAL FAIR      76  65  68 SW9       30.11S
WILMINGTON     FAIR      74  65  73 S9        30.12F
$$

OHZ036-037-039>041-045>050-054>059-063>069-073>076-082>088-291600-
  CENTRAL AND SOUTHEAST OHIO

CITY           SKY/WX    TMP DP  RH WIND       PRES   REMARKS
COLUMBUS       CLOUDY    76  64  66 S8        30.11F
OSU AIRPORT    PTSUNNY   74  65  73 S8        30.11F
BOLTON FIELD   MOSUNNY   75  66  73 S8        30.12F
RICKENBACK AFB FAIR      75  65  71 S5        30.11S
NEWARK         FAIR      77  66  68 SW5       30.11F
MARION         FAIR      74  66  76 S8        30.11S
LANCASTER      FAIR      73  67  81 S5        30.12F
ZANESVILLE     FAIR      81  68  64 E3        30.11F
NEW PHILLY     FAIR      77  66  68 SE3       30.12F
$$



USA.gov is the U.S. government's official web portal to all federal, state and local government web resources and services.